Home   Weather   Pago Pago   Past weeks

Flag for American Samoa Past Weather in Pago Pago, American Samoa — Yesterday and Last 2 Weeks

Now
88 °F

Broken clouds.


Feels Like: 105 °F
Forecast: 80 / 87 °F
Wind: 13 mph from East

Location: Pago Pago / Int. Airp.

Current Time: Mar 22, 2017 at 1:23:49 pm

Latest Report: Mar 22, 2017 at 12:50 pm


Visibility: 12 mi

Pressure: 29.86 "Hg

Humidity: 79%

Dew Point: 81 °F

Location of Pago PagoLocation

Past Weather in Pago Pago — Graph

°F

Pago Pago Temperature Yesterday

Maximum temperature yesterday: 88 °F (at 2:50 pm)
Minimum temperature yesterday: 78 °F (at 4:51 am)
Average temperature yesterday: 83 °F

High & Low Weather Summary for the Past Weeks

 TemperatureHumidityPressure
High90 °F (Mar 8, 1:50 pm)100% (Mar 8, 4:55 am)29.95 "Hg (Mar 8, 4:55 am)
Low75 °F (Mar 17, 2:44 am)66% (Mar 21, 2:50 pm)29.72 "Hg (Mar 7, 3:54 pm)
Average83 °F85%29.84 "Hg
* Reported Mar 7 11:52 am — Mar 22 11:51 am, Pago Pago, Weather by CustomWeather, © 2017

Note: Actual official high and low records may vary slightly from our data, if they occured in-between our weather recording intervals... More about our weather records

Advertising

Pago Pago Weather History for the Previous 24 Hours

Scroll right to see more
 ConditionsComfort  
Time TempWeatherWind HumidityBarometerVisibility
11:51 am
Wed, Mar 22
84 °FBroken clouds.12 mph85%29.90 "Hg11 mi
11:28 am84 °FLots of rain. Mostly cloudy.23 mph84%29.92 "Hg5 mi
9:50 am85 °FBroken clouds.13 mph81%29.93 "Hg12 mi
8:51 am84 °FBroken clouds.12 mph84%29.94 "Hg12 mi
7:50 am82 °FBroken clouds.7 mph84%29.93 "Hg12 mi
6:50 am81 °FBroken clouds.6 mph89%29.90 "Hg10 mi
5:50 am81 °FPartly cloudy.9 mph89%29.88 "Hg10 mi
4:50 am82 °FPartly cloudy.8 mph87%29.87 "Hg10 mi
3:52 am80 °FPartly cloudy.8 mph88%29.86 "Hg10 mi
2:51 am81 °FPartly cloudy.8 mph87%29.88 "Hg10 mi
1:52 am82 °FSprinkles. Partly cloudy.8 mph91%29.88 "Hg10 mi
12:50 am83 °FPassing clouds.10 mph83%29.91 "Hg10 mi
11:50 pm
Tue, Mar 21
83 °FPassing clouds.10 mph83%29.93 "Hg10 mi
10:50 pm84 °FPassing clouds.10 mph81%29.93 "Hg10 mi
9:50 pm83 °FPassing clouds.6 mph85%29.93 "Hg10 mi
8:50 pm84 °FPassing clouds.8 mph79%29.92 "Hg10 mi
7:50 pm84 °FPartly cloudy.6 mph78%29.90 "Hg10 mi
6:50 pm84 °FPassing clouds.7 mph76%29.88 "Hg11 mi
5:50 pm86 °FBroken clouds.6 mph70%29.86 "Hg12 mi
4:50 pm86 °FPartly sunny.7 mph71%29.86 "Hg12 mi
3:55 pm86 °FBroken clouds.6 mph72%29.85 "Hg12 mi
2:50 pm88 °FBroken clouds.6 mph66%29.86 "Hg12 mi
1:53 pm87 °FPartly sunny.5 mph74%29.88 "Hg12 mi
Weather by CustomWeather, © 2017

See weather overviewHow to use our weather pages